Temp
92 91 90 91 90 89 88 88 88 87 85 85 85 86 86 85 84 83 83 82 81 81 81 82 82 82 81 81 82 82 82 82 82 81 81 81 81 80 80 80 80 79 79 79 79 79 79 80 79 78 78 77 77 76 76 76 75 76 73 74 75 74 74
90 91 89 90 89 88 87 88 88 88 87 86 86 86 87 85 84 83 83 82 82 82 82 82 82 82 82 82 82 82 81 82 82 81 81 81 81 80 81 81 80 79 79 79 79 78 79 79 79 78 78 77 76 76 76 75 75 75 74 73 73 73 73
89 90 89 88 88 88 86 87 88 89 88 87 87 86 86 85 85 84 83 82 82 82 82 82 82 82 82 82 81 81 82 82 81 81 81 81 81 81 81 81 81 80 80 80 79 79 80 79 78 78 78 77 76 76 76 75 75 75 75 73 74 73 72
88 89 89 88 88 88 87 87 87 90 89 88 87 87 87 85 86 85 84 84 82 82 81 82 82 82 82 81 81 81 81 82 82 82 82 82 82 81 81 81 81 81 80 80 80 81 80 79 78 78 79 77 76 76 76 76 75 75 75 74 73 73 72
88 90 89 89 89 87 86 86 87 89 89 90 88 87 87 86 86 85 85 85 84 83 83 83 84 83 83 83 82 82 82 82 82 82 82 83 82 82 81 81 81 81 80 81 81 80 80 78 78 78 77 77 77 76 76 76 75 75 74 74 73 73 72
88 88 88 89 90 89 88 89 89 90 90 90 88 87 87 88 88 87 86 84 84 85 84 83 83 83 82 83 83 82 82 82 82 82 82 82 82 82 81 81 81 82 81 81 81 81 80 79 78 78 77 77 77 77 76 76 76 75 74 73 73 73 72
88 89 89 90 90 90 89 89 90 91 91 91 89 88 89 89 88 88 87 85 85 84 83 83 83 83 82 83 82 82 81 82 82 82 83 82 82 82 82 82 82 82 82 82 80 81 80 79 79 78 78 78 77 77 76 75 75 75 74 72 72 73 73
90 90 90 90 91 91 90 89 90 91 91 90 89 89 89 89 89 89 88 87 86 86 85 84 83 83 83 83 83 82 82 82 83 83 82 82 82 82 82 82 82 82 82 82 81 81 80 80 79 79 78 78 77 76 76 76 75 76 75 73 72 72 74
91 91 90 91 91 93 92 89 90 90 89 89 88 88 88 88 89 89 89 88 87 86 85 86 85 84 84 83 83 82 83 83 82 82 82 82 82 82 83 83 82 82 82 82 82 80 80 80 80 78 78 77 76 76 76 75 75 75 75 74 73 73 73
90 89 89 91 93 93 91 90 89 88 87 87 87 86 87 88 89 89 89 89 89 87 87 87 86 85 84 83 83 83 83 82 83 83 83 83 83 83 83 84 83 82 82 82 82 80 80 80 79 78 77 77 76 76 76 75 75 75 75 75 74 73 72
88 88 88 89 89 89 88 89 87 86 86 86 86 87 87 87 88 89 89 90 89 89 89 88 87 86 85 84 84 83 83 82 83 83 83 83 84 84 85 85 84 83 83 82 82 81 80 79 79 78 77 77 76 76 76 76 76 75 75 75 74 74 73
87 87 84 86 87 86 86 87 87 85 85 86 87 87 86 86 88 89 89 90 91 90 89 88 89 88 86 85 84 83 83 82 83 82 83 84 84 85 85 85 84 84 83 83 82 81 81 79 79 78 77 77 77 76 76 76 75 75 75 75 74 74 74
87 85 84 86 87 87 84 82 84 85 85 86 87 87 86 87 88 89 88 89 91 91 90 89 88 87 86 85 85 83 83 83 83 83 84 84 84 85 85 85 86 85 84 84 84 82 81 80 79 79 78 77 77 77 76 75 75 75 74 75 75 74 74
87 87 87 87 87 84 81 82 83 83 83 85 86 87 87 88 89 88 88 89 90 91 91 90 88 87 86 85 84 83 83 83 84 84 84 84 84 84 85 85 85 84 84 84 84 83 82 80 79 79 78 78 77 77 77 76 75 75 75 75 75 75 74
85 86 85 85 83 83 83 82 82 82 82 83 85 86 86 87 88 88 88 90 90 91 91 90 88 87 86 85 84 83 84 83 84 84 84 84 84 83 84 84 84 84 84 83 84 83 83 82 81 79 77 77 77 77 77 76 75 75 75 74 74 75 74
85 86 86 86 85 85 84 84 83 82 82 82 84 85 86 86 86 87 88 89 90 90 91 89 87 86 86 85 84 84 84 83 83 83 83 83 83 83 84 84 84 84 83 83 84 83 82 81 80 80 78 77 76 76 76 75 76 72 68 71 75 74 74
86 86 84 82 80 83 83 84 84 83 83 83 84 85 86 86 87 88 90 90 91 90 91 90 87 86 86 85 85 84 84 83 83 83 82 83 83 83 83 83 84 83 82 82 83 83 81 81 80 79 78 78 77 76 76 75 75 67 66 68 70 74 74
85 84 84 85 84 84 84 84 83 83 83 85 85 86 86 86 87 87 88 90 90 91 91 90 88 86 86 85 85 84 83 83 83 82 82 83 83 83 83 83 83 82 82 82 82 82 81 80 79 79 78 78 77 76 76 75 70 64 66 67 67 70 74
85 87 86 85 84 84 86 86 86 85 86 87 87 86 88 88 87 86 88 88 90 91 91 90 89 87 85 85 84 84 84 83 83 82 82 82 83 83 82 82 82 82 81 81 82 81 80 79 79 78 78 77 76 76 76 76 67 63 65 66 66 67 72
82 85 88 88 88 88 87 87 87 87 87 87 88 89 90 89 88 88 89 91 90 89 89 89 88 86 86 85 84 84 84 83 83 82 82 82 82 82 82 82 82 82 82 81 80 80 80 79 77 77 76 76 76 76 76 76 65 62 63 65 65 65 69
81 81 84 86 86 88 86 86 86 86 85 87 89 89 89 88 89 89 89 89 89 89 88 89 87 85 85 85 85 84 84 83 83 82 82 82 82 81 81 81 81 81 80 80 80 80 79 77 77 76 76 77 77 76 75 76 61 61 61 63 62 62 66
81 82 82 84 84 84 85 86 86 86 86 87 88 89 89 89 90 89 88 89 89 88 88 88 86 85 84 84 84 84 84 83 82 82 81 81 81 80 80 80 80 80 78 79 79 79 78 77 78 76 76 76 76 76 75 71 59 61 61 61 61 63 67
86 84 84 82 87 88 86 86 86 88 87 87 88 88 89 90 90 89 88 88 89 88 88 87 85 84 84 84 84 84 84 83 82 81 80 80 80 80 79 79 79 79 78 77 77 77 77 76 77 76 77 76 76 76 75 67 60 59 59 59 60 63 68
90 90 87 84 81 84 86 86 88 88 88 88 87 89 90 90 89 87 86 87 88 88 87 86 84 84 84 84 84 84 83 83 82 80 80 80 79 79 79 79 79 79 78 78 77 77 77 76 76 76 77 77 76 77 73 66 61 58 58 58 60 64 69
91 91 89 88 88 84 83 86 87 88 87 87 87 88 88 88 88 87 86 86 88 88 86 85 83 83 83 83 84 83 83 82 81 80 80 80 80 80 79 79 78 79 78 78 78 78 78 77 76 75 76 77 78 73 70 67 62 57 57 58 58 63 69
83 84 84 85 87 90 85 83 85 85 86 86 86 88 88 88 88 86 85 85 86 86 85 84 83 83 84 83 82 82 82 81 80 80 80 79 79 79 79 78 78 78 79 78 78 77 77 75 75 75 75 76 77 74 71 68 65 60 56 57 58 60 69
86 84 83 85 87 84 86 83 83 85 86 87 86 88 88 88 86 84 84 84 84 84 85 84 83 83 83 82 82 81 81 81 81 80 80 80 79 79 78 78 78 78 77 77 77 75 75 75 74 75 74 73 73 72 71 70 67 63 56 57 57 58 65
78 82 85 83 81 82 86 91 83 84 87 87 87 88 88 86 84 83 83 82 83 84 84 83 83 83 82 81 81 81 81 81 80 80 80 79 79 77 77 77 77 77 77 76 74 73 73 73 73 72 70 70 72 72 71 69 66 68 58 57 55 56 60
74 75 80 81 80 81 82 80 80 83 86 86 86 85 85 85 82 81 81 82 82 83 83 83 83 82 81 80 80 80 80 79 79 79 79 78 78 77 76 76 76 76 76 74 73 72 72 72 71 70 69 69 70 71 71 70 68 64 62 56 54 55 55
73 74 77 80 79 77 77 74 74 74 76 78 81 83 85 84 81 80 81 81 81 82 82 82 82 81 80 79 79 79 78 78 78 79 78 77 76 76 75 75 74 74 74 73 73 72 71 70 70 69 69 69 69 69 69 68 67 62 61 59 54 54 54
71 71 74 73 72 73 75 74 73 73 73 73 72 74 78 82 82 79 80 80 82 81 82 81 81 80 79 78 78 77 78 77 77 77 77 76 76 74 74 73 74 73 73 73 72 71 70 69 69 69 67 67 68 67 67 66 65 64 62 59 56 55 54
69 70 71 71 71 71 72 73 73 73 72 70 70 71 72 74 79 79 79 81 81 82 81 80 79 78 77 77 77 77 77 76 76 75 75 74 74 73 72 72 72 71 71 72 72 71 70 68 69 68 68 67 66 66 66 65 65 64 63 61 58 58 56
68 69 69 68 69 69 69 69 69 69 70 70 71 73 74 74 74 78 80 80 81 81 81 79 78 77 76 76 76 76 76 75 74 73 73 73 73 73 73 73 73 72 71 71 71 70 69 69 68 67 67 66 66 66 66 66 66 64 63 62 60 61 58
65 66 68 68 68 69 69 68 68 68 69 69 70 72 73 73 73 73 76 79 80 80 79 76 77 77 76 76 76 76 75 74 75 71 67 66 66 67 68 71 73 72 71 70 71 69 68 69 67 67 67 66 66 65 65 65 64 64 63 63 63 62 59
65 65 65 66 67 67 67 67 68 69 69 69 70 72 73 73 73 74 75 75 76 77 77 77 76 77 77 76 75 73 72 70 67 65 62 58 54 51 51 54 62 65 60 56 56 65 71 68 68 67 68 68 66 65 65 65 64 66 61 66 59 63 61
64 65 66 67 68 68 68 68 68 69 68 68 69 69 69 71 71 72 74 75 76 76 75 76 77 77 76 75 75 73 71 68 67 64 62 59 58 56 53 49 42 48 58 57 56 50 57 62 68 70 69 67 67 67 66 65 68 59 53 52 52 52 54
64 64 65 66 67 67 67 68 69 67 66 66 66 68 68 70 70 71 73 73 76 76 76 77 75 75 75 75 74 71 70 68 66 65 63 62 61 59 58 56 53 44 43 48 49 48 51 53 55 58 61 66 63 54 53 60 56 51 50 49 49 49 48
66 66 66 66 67 67 66 66 68 68 66 67 67 67 68 72 75 75 75 75 76 78 77 77 76 75 75 72 70 69 69 69 67 66 64 63 62 61 60 59 57 56 47 43 44 45 44 47 50 53 54 56 58 58 55 50 48 49 48 48 47 45 43
MSLP
1000.48 1000.96 1001.28 1001.36 1001.80 1002.12 1002.36 1002.48 1002.76 1003.28 1003.76 1004.20 1004.44 1004.76 1005.20 1005.52 1005.96 1006.48 1007.08 1007.48 1007.96 1008.48 1008.60 1008.84 1009.16 1009.48 1009.84 1010.04 1010.16 1010.28 1010.40 1010.60 1010.88 1011.32 1011.60 1011.80 1011.92 1012.24 1012.60 1012.76 1013.08 1013.32 1013.44 1013.80 1014.00 1014.16 1014.20 1014.20 1014.52 1014.80 1015.00 1015.20 1015.44 1015.56 1015.80 1015.92 1016.12 1016.24 1016.40 1016.56 1016.72 1017.04 1017.12
1000.56 1000.68 1000.92 1000.96 1001.32 1001.60 1001.76 1001.80 1002.12 1002.60 1003.12 1003.52 1003.84 1004.16 1004.48 1005.00 1005.40 1006.00 1006.44 1006.84 1007.24 1007.68 1008.08 1008.36 1008.76 1009.04 1009.32 1009.60 1009.72 1009.88 1010.08 1010.24 1010.48 1010.76 1011.08 1011.36 1011.48 1011.76 1011.88 1012.24 1012.52 1012.88 1013.04 1013.24 1013.48 1013.72 1013.88 1014.04 1014.24 1014.60 1014.84 1014.96 1015.16 1015.24 1015.52 1015.72 1015.92 1016.12 1016.32 1016.44 1016.68 1016.92 1017.08
1000.16 1000.20 1000.40 1000.64 1000.88 1001.12 1001.44 1001.52 1001.72 1001.88 1002.36 1002.88 1003.32 1003.68 1003.96 1004.28 1004.56 1005.16 1005.84 1006.44 1006.96 1007.28 1007.56 1007.92 1008.16 1008.48 1008.76 1009.12 1009.48 1009.56 1009.60 1009.84 1010.16 1010.48 1010.84 1011.04 1011.28 1011.48 1011.60 1011.80 1012.08 1012.44 1012.64 1012.80 1013.08 1013.40 1013.48 1013.84 1014.00 1014.24 1014.44 1014.72 1014.92 1015.12 1015.32 1015.60 1015.76 1015.88 1016.04 1016.20 1016.40 1016.68 1016.92
999.84 999.84 999.76 999.84 1000.08 1000.24 1000.64 1000.92 1001.20 1001.36 1001.68 1002.04 1002.48 1002.84 1003.28 1003.68 1003.92 1004.48 1005.04 1005.64 1006.36 1006.88 1007.32 1007.40 1007.64 1008.04 1008.36 1008.80 1009.12 1009.24 1009.36 1009.44 1009.64 1009.96 1010.24 1010.44 1010.84 1011.04 1011.40 1011.64 1011.84 1012.08 1012.52 1012.68 1012.76 1012.96 1013.20 1013.44 1013.80 1014.04 1014.16 1014.48 1014.68 1014.84 1015.08 1015.28 1015.52 1015.68 1015.80 1016.00 1016.24 1016.36 1016.60
999.00 998.92 999.24 999.64 999.88 1000.20 1000.56 1000.88 1001.00 1000.96 1001.16 1001.36 1001.76 1002.16 1002.64 1003.16 1003.68 1004.20 1004.60 1004.96 1005.40 1006.04 1006.24 1006.60 1007.04 1007.52 1007.96 1008.20 1008.48 1008.60 1008.80 1009.04 1009.32 1009.52 1009.80 1010.00 1010.28 1010.64 1011.08 1011.40 1011.56 1011.84 1012.04 1012.28 1012.44 1012.68 1012.96 1013.32 1013.60 1013.84 1014.04 1014.16 1014.40 1014.60 1014.84 1015.04 1015.28 1015.40 1015.60 1015.76 1016.12 1016.24 1016.44
998.92 999.04 999.20 999.28 999.28 999.44 999.60 999.84 1000.04 1000.24 1000.68 1001.20 1001.64 1002.16 1002.52 1003.04 1003.40 1003.84 1004.12 1004.60 1005.00 1005.28 1005.72 1006.32 1006.84 1007.24 1007.72 1007.76 1007.96 1008.20 1008.40 1008.60 1008.76 1009.08 1009.40 1009.68 1010.04 1010.40 1010.68 1010.92 1011.20 1011.44 1011.80 1011.92 1012.04 1012.28 1012.52 1012.92 1013.20 1013.48 1013.76 1013.88 1014.08 1014.36 1014.60 1014.84 1014.96 1015.12 1015.40 1015.64 1015.88 1016.08 1016.32
998.16 998.32 998.44 998.36 998.36 998.64 998.96 999.20 999.48 999.68 999.80 1000.28 1000.96 1001.56 1002.08 1002.56 1003.00 1003.40 1003.76 1004.24 1004.48 1005.12 1005.52 1006.00 1006.32 1006.76 1007.12 1007.28 1007.56 1007.88 1008.16 1008.32 1008.56 1008.88 1009.00 1009.40 1009.60 1010.00 1010.28 1010.52 1010.72 1010.96 1011.16 1011.40 1011.76 1011.88 1012.28 1012.52 1012.76 1013.00 1013.24 1013.52 1013.80 1014.04 1014.24 1014.48 1014.80 1014.92 1015.24 1015.64 1015.88 1015.96 1016.08
996.96 997.64 997.44 997.48 997.72 997.96 998.48 998.76 999.00 999.16 999.36 999.76 1000.60 1001.28 1001.68 1001.88 1002.52 1003.08 1003.32 1003.60 1004.04 1004.48 1004.96 1005.44 1005.92 1006.20 1006.56 1006.80 1007.04 1007.40 1007.64 1007.92 1008.08 1008.40 1008.72 1009.12 1009.36 1009.68 1009.92 1010.12 1010.36 1010.52 1010.84 1011.16 1011.28 1011.40 1011.80 1012.04 1012.32 1012.56 1012.84 1013.16 1013.40 1013.60 1013.80 1014.04 1014.40 1014.68 1015.04 1015.48 1015.76 1015.92 1015.92
995.88 996.08 996.56 996.88 997.16 997.44 997.76 998.28 998.64 999.08 999.44 999.60 999.84 1000.32 1000.80 1001.52 1002.04 1002.36 1002.84 1003.24 1003.56 1003.96 1004.40 1004.68 1005.20 1005.64 1006.00 1006.40 1006.72 1006.96 1007.16 1007.52 1007.88 1008.08 1008.44 1008.80 1009.04 1009.36 1009.56 1009.72 1009.96 1010.04 1010.44 1010.72 1010.92 1011.08 1011.28 1011.64 1011.88 1012.20 1012.44 1012.72 1012.96 1013.20 1013.52 1013.80 1014.08 1014.36 1014.68 1015.00 1015.32 1015.72 1015.88
995.92 996.24 996.24 996.20 996.40 996.76 997.24 997.84 998.40 999.00 999.60 999.76 999.92 1000.32 1000.64 1000.76 1001.12 1001.72 1002.24 1002.52 1002.96 1003.52 1003.92 1004.40 1004.80 1005.20 1005.68 1006.04 1006.36 1006.60 1007.00 1007.32 1007.44 1007.80 1008.08 1008.48 1008.60 1008.92 1009.08 1009.28 1009.52 1009.64 1009.96 1010.20 1010.44 1010.84 1011.00 1011.20 1011.48 1011.80 1012.04 1012.32 1012.60 1012.88 1013.20 1013.52 1013.76 1014.08 1014.36 1014.76 1015.24 1015.64 1015.92
995.72 996.04 996.28 996.40 996.64 996.88 997.40 998.04 998.64 998.92 999.04 999.24 999.40 999.56 999.80 1000.32 1000.76 1001.12 1001.52 1001.88 1002.32 1002.80 1003.32 1003.88 1004.16 1004.76 1005.24 1005.64 1006.12 1006.40 1006.72 1006.92 1007.08 1007.44 1007.68 1007.92 1008.12 1008.44 1008.60 1008.80 1009.04 1009.24 1009.48 1009.80 1010.12 1010.36 1010.72 1010.96 1011.04 1011.36 1011.64 1011.92 1012.20 1012.56 1012.84 1013.08 1013.40 1013.88 1014.40 1014.96 1015.32 1015.56 1015.68
995.40 995.68 996.28 996.48 996.52 996.96 997.56 997.76 998.00 998.40 998.68 998.80 998.88 999.12 999.48 999.80 1000.16 1000.56 1000.92 1001.16 1001.44 1002.28 1002.80 1003.24 1003.60 1004.12 1004.72 1005.16 1005.72 1006.08 1006.32 1006.44 1006.64 1006.92 1007.12 1007.36 1007.64 1007.84 1008.00 1008.20 1008.48 1008.76 1009.00 1009.24 1009.68 1009.92 1010.12 1010.44 1010.64 1010.80 1011.16 1011.44 1011.76 1012.04 1012.40 1012.76 1013.16 1013.72 1014.40 1014.84 1014.88 1015.00 1015.28
995.20 995.80 996.28 996.24 996.40 996.56 996.92 997.60 997.92 997.96 998.08 998.24 998.36 998.56 999.00 999.40 999.80 1000.08 1000.44 1000.76 1000.92 1001.28 1002.00 1002.56 1003.08 1003.56 1004.12 1004.60 1005.08 1005.52 1005.76 1005.92 1006.08 1006.20 1006.56 1006.84 1007.00 1007.16 1007.44 1007.68 1007.88 1008.20 1008.56 1008.64 1009.00 1009.40 1009.76 1009.96 1010.24 1010.40 1010.72 1011.08 1011.40 1011.76 1012.08 1012.56 1013.00 1013.72 1014.48 1014.64 1014.80 1014.80 1014.92
994.84 995.32 995.56 995.72 996.08 996.52 997.16 997.24 997.44 997.72 997.92 998.12 998.28 998.28 998.60 998.80 999.04 999.44 999.84 1000.28 1000.40 1000.76 1001.36 1001.84 1002.44 1003.04 1003.56 1004.00 1004.48 1004.80 1005.00 1005.12 1005.32 1005.64 1005.92 1006.12 1006.40 1006.72 1006.88 1007.12 1007.40 1007.64 1007.88 1008.20 1008.60 1008.88 1009.16 1009.56 1009.84 1010.04 1010.40 1010.80 1011.12 1011.40 1011.76 1012.28 1012.88 1013.36 1013.60 1013.72 1013.92 1014.12 1014.24
995.36 995.60 995.80 996.08 996.24 996.36 996.48 997.00 997.24 997.48 997.76 997.84 997.96 998.32 998.52 998.72 998.88 999.04 999.32 999.48 999.84 1000.20 1000.56 1000.92 1001.80 1002.48 1003.00 1003.48 1003.88 1004.00 1004.16 1004.48 1004.84 1005.08 1005.44 1005.72 1006.08 1006.36 1006.56 1006.68 1006.84 1007.08 1007.44 1007.76 1008.08 1008.32 1008.60 1008.92 1009.36 1009.88 1010.32 1010.56 1010.80 1011.16 1011.52 1012.04 1012.52 1012.80 1012.96 1013.00 1013.24 1013.48 1013.56
995.76 995.84 995.80 995.92 995.92 995.88 995.96 996.12 996.48 996.88 997.16 997.56 997.76 997.96 998.16 998.40 998.60 998.76 999.04 999.24 999.40 999.76 999.92 1000.52 1001.28 1001.88 1002.44 1002.92 1003.08 1003.32 1003.60 1003.96 1004.32 1004.64 1004.92 1005.32 1005.64 1005.80 1005.92 1006.16 1006.44 1006.80 1007.12 1007.40 1007.60 1007.92 1008.24 1008.64 1009.08 1009.48 1009.88 1010.32 1010.64 1010.88 1011.24 1011.64 1011.96 1012.12 1012.12 1012.12 1012.44 1012.92 1013.12
995.44 995.68 995.92 995.96 996.00 996.00 996.00 996.00 996.08 996.36 996.76 997.04 997.12 997.24 997.56 997.80 997.92 998.08 998.36 998.64 998.92 999.20 999.28 999.76 1000.60 1001.24 1001.68 1002.12 1002.32 1002.76 1003.16 1003.60 1003.92 1004.20 1004.60 1004.72 1004.92 1005.20 1005.56 1005.88 1006.12 1006.48 1006.84 1007.12 1007.36 1007.64 1007.92 1008.32 1008.84 1009.12 1009.48 1009.92 1010.32 1010.72 1011.00 1011.36 1011.56 1011.76 1011.88 1012.00 1012.20 1012.56 1012.88
995.00 995.40 995.56 995.52 995.52 995.72 995.92 996.04 996.12 996.32 996.48 996.44 996.36 996.52 996.80 997.20 997.40 997.68 998.00 997.96 998.16 998.24 998.52 999.20 999.84 1000.44 1000.92 1001.24 1001.84 1002.28 1002.68 1003.00 1003.40 1003.80 1004.04 1004.28 1004.56 1004.80 1005.12 1005.48 1005.88 1006.28 1006.56 1006.84 1007.20 1007.32 1007.60 1008.08 1008.32 1008.68 1009.16 1009.64 1010.04 1010.40 1010.76 1011.16 1011.36 1011.60 1011.68 1011.88 1012.24 1012.36 1012.52
994.56 994.40 994.68 994.76 995.04 995.16 995.16 995.32 995.40 995.52 995.64 995.68 995.80 996.00 995.88 995.96 996.68 997.24 997.12 997.32 997.16 997.48 998.24 998.68 999.08 999.64 1000.24 1000.68 1001.16 1001.64 1002.00 1002.40 1002.92 1003.28 1003.60 1003.88 1004.16 1004.48 1004.88 1005.32 1005.68 1006.00 1006.32 1006.60 1006.64 1007.04 1007.44 1007.64 1008.04 1008.52 1008.84 1009.20 1009.68 1010.08 1010.40 1010.76 1011.04 1011.36 1011.60 1011.84 1012.00 1012.12 1012.40
994.28 994.04 993.64 993.72 993.88 994.20 994.36 994.44 994.60 994.64 994.60 994.72 994.76 994.72 994.68 995.00 995.64 995.80 995.76 996.04 996.56 997.36 997.68 998.08 998.56 999.00 999.48 999.96 1000.44 1000.88 1001.36 1001.84 1002.36 1002.84 1003.12 1003.44 1003.88 1004.28 1004.72 1005.08 1005.36 1005.48 1005.72 1006.12 1006.52 1006.80 1007.12 1007.44 1007.92 1008.24 1008.56 1008.80 1009.20 1009.64 1010.00 1010.40 1010.72 1011.08 1011.40 1011.52 1011.68 1012.12 1012.76
992.88 993.40 994.00 993.76 993.64 993.64 993.80 993.84 993.88 994.04 994.24 994.24 994.16 994.16 994.44 994.92 994.88 995.04 995.56 995.96 996.60 996.72 997.12 997.44 997.92 998.48 998.88 999.40 999.72 1000.24 1000.84 1001.40 1001.88 1002.40 1002.80 1003.16 1003.60 1004.04 1004.44 1004.76 1005.08 1005.36 1005.56 1005.80 1006.12 1006.52 1006.96 1007.32 1007.76 1008.00 1008.24 1008.60 1008.96 1009.48 1009.92 1010.08 1010.40 1010.76 1011.04 1011.40 1012.04 1013.12 1013.96
992.68 992.56 993.08 993.28 993.64 993.52 993.32 993.36 993.52 993.68 993.76 993.40 993.64 993.92 994.12 994.48 994.40 994.96 995.44 995.40 995.92 996.32 996.64 997.04 997.60 998.08 998.44 998.92 999.32 999.76 1000.20 1000.84 1001.52 1002.04 1002.52 1002.96 1003.36 1003.84 1004.24 1004.52 1004.84 1005.20 1005.32 1005.60 1005.96 1006.20 1006.56 1007.00 1007.20 1007.72 1008.12 1008.44 1008.84 1009.36 1009.84 1010.00 1010.24 1010.56 1011.00 1011.76 1012.96 1013.96 1014.04
991.88 992.04 991.92 992.04 991.96 992.44 992.68 992.80 992.96 992.76 992.60 992.84 993.12 993.52 993.80 993.72 994.08 994.56 995.04 995.52 995.68 996.00 996.40 996.80 997.32 997.72 998.04 998.44 998.80 999.32 999.76 1000.36 1001.08 1001.76 1002.28 1002.68 1003.20 1003.64 1004.00 1004.36 1004.72 1004.96 1005.08 1005.60 1005.96 1006.28 1006.52 1006.76 1007.04 1007.36 1007.80 1008.28 1008.64 1009.16 1009.52 1010.00 1010.20 1010.52 1011.12 1011.84 1012.08 1012.44 1012.84
990.80 990.88 991.12 991.32 991.68 991.92 992.04 992.16 992.12 992.00 992.20 992.60 992.84 992.76 992.76 993.04 993.60 994.20 994.80 995.16 995.36 995.84 996.28 996.60 996.96 997.16 997.56 998.04 998.36 998.84 999.36 999.88 1000.56 1001.40 1001.96 1002.44 1003.00 1003.40 1003.76 1004.04 1004.36 1004.68 1004.76 1005.28 1005.72 1006.00 1006.08 1006.32 1006.72 1007.00 1007.24 1007.76 1008.24 1008.48 1009.12 1009.60 1009.88 1010.04 1010.44 1010.88 1010.96 1011.52 1012.44
990.76 990.68 990.64 990.72 991.00 991.60 991.84 991.84 991.88 991.92 992.08 992.20 992.68 992.44 992.44 992.80 993.24 993.88 994.48 994.68 994.96 995.36 995.96 996.32 996.64 996.88 997.20 997.52 997.88 998.44 999.00 999.60 1000.28 1001.04 1001.68 1002.32 1002.80 1003.12 1003.64 1003.88 1004.12 1004.24 1004.40 1004.76 1005.04 1005.36 1005.56 1005.84 1006.24 1006.64 1006.92 1007.20 1007.60 1007.96 1008.64 1009.16 1009.56 1009.64 1010.28 1010.60 1011.04 1011.60 1012.16
992.12 991.44 991.20 990.88 990.64 990.44 990.60 990.92 991.20 991.64 992.00 992.36 992.16 991.76 992.12 992.48 993.00 993.56 994.04 994.36 994.56 995.20 995.60 995.84 996.08 996.20 996.64 997.20 997.80 998.36 998.92 999.48 1000.20 1000.84 1001.48 1002.12 1002.52 1002.84 1003.16 1003.44 1003.80 1004.12 1004.40 1004.68 1005.00 1005.48 1005.80 1006.12 1006.32 1006.68 1006.92 1007.04 1007.40 1007.96 1008.28 1008.80 1009.48 1010.20 1010.20 1010.44 1010.76 1011.16 1011.76
992.40 991.60 991.52 990.96 990.48 989.88 990.16 990.52 990.92 991.16 991.36 991.44 991.44 991.44 991.52 992.00 992.80 993.44 993.76 994.04 994.56 995.04 995.04 995.28 995.72 996.16 996.72 997.28 997.84 998.36 998.88 999.36 999.92 1000.64 1001.20 1001.52 1002.08 1002.48 1002.92 1003.20 1003.64 1004.00 1004.44 1004.88 1005.16 1005.52 1005.92 1006.24 1006.52 1006.80 1007.04 1007.16 1007.36 1007.80 1008.24 1008.56 1009.36 1010.08 1010.20 1010.24 1010.60 1011.16 1011.48
993.72 992.60 991.32 991.04 990.92 990.88 990.56 989.80 990.28 990.64 990.72 990.60 990.76 990.92 991.24 991.68 992.56 993.08 993.52 994.04 994.44 994.48 994.60 995.12 995.56 996.04 996.68 997.32 997.88 998.32 998.80 999.36 999.88 1000.36 1000.96 1001.44 1001.88 1002.52 1003.00 1003.16 1003.40 1003.80 1004.20 1004.60 1005.08 1005.60 1006.00 1006.28 1006.60 1007.04 1007.40 1007.52 1007.56 1007.76 1008.20 1008.56 1008.92 1009.60 1010.12 1010.24 1010.64 1011.08 1011.16
994.60 994.16 992.88 991.80 991.56 991.48 991.96 992.68 992.20 991.44 990.84 990.48 990.60 990.96 991.24 991.64 992.52 993.08 993.56 994.04 994.04 994.08 994.52 995.00 995.44 996.04 996.72 997.40 998.08 998.52 999.00 999.48 1000.00 1000.52 1000.96 1001.52 1001.92 1002.44 1003.00 1003.20 1003.48 1003.80 1004.08 1004.60 1005.16 1005.60 1006.04 1006.32 1006.64 1007.08 1007.52 1007.76 1007.80 1007.92 1008.16 1008.52 1008.84 1009.04 1009.76 1010.36 1010.68 1010.84 1010.96
994.68 994.32 993.68 992.88 992.04 991.60 991.72 992.64 993.32 993.20 993.08 992.88 992.56 991.88 991.28 991.88 992.92 993.24 993.56 993.84 993.64 993.92 994.52 995.08 995.64 996.16 996.88 997.56 998.12 998.64 999.20 999.68 1000.08 1000.48 1000.92 1001.40 1001.88 1002.32 1002.84 1003.32 1003.64 1003.88 1004.20 1004.60 1005.12 1005.68 1006.12 1006.48 1006.76 1007.20 1007.56 1007.88 1008.12 1008.20 1008.40 1008.64 1008.96 1009.36 1009.48 1009.96 1010.52 1010.60 1010.72
995.52 995.36 994.80 994.08 993.80 992.80 991.96 992.48 992.96 993.12 993.16 993.16 993.56 994.40 994.28 993.08 992.76 993.16 993.48 993.48 993.28 993.92 994.56 995.28 995.80 996.40 997.12 997.68 998.24 998.80 999.36 999.76 1000.28 1000.76 1001.20 1001.52 1001.84 1002.52 1003.00 1003.48 1003.68 1004.16 1004.28 1004.52 1005.04 1005.52 1006.12 1006.52 1006.72 1007.12 1007.44 1007.72 1008.04 1008.32 1008.52 1008.80 1009.04 1009.36 1009.60 1009.84 1010.36 1010.60 1010.76
995.76 995.56 995.20 995.08 994.40 993.76 993.28 992.52 992.44 992.84 993.40 993.44 993.32 994.36 995.28 995.24 994.32 994.04 993.88 993.24 993.32 993.68 994.44 995.32 996.08 996.76 997.32 997.80 998.32 998.84 999.36 1000.16 1000.68 1001.04 1001.48 1001.84 1002.12 1002.60 1003.00 1003.48 1003.92 1004.40 1004.68 1004.80 1005.20 1005.60 1006.04 1006.44 1006.68 1006.96 1007.20 1007.56 1007.88 1008.24 1008.48 1008.76 1009.00 1009.24 1009.60 1010.08 1010.36 1010.60 1010.80
996.68 996.36 996.16 996.00 995.68 994.68 994.00 994.00 994.04 994.16 993.80 993.92 994.16 993.96 994.16 994.56 995.08 994.52 993.68 993.44 993.20 993.56 994.32 995.32 996.08 996.84 997.48 998.00 998.48 999.00 999.56 1000.40 1001.04 1001.48 1001.84 1002.20 1002.52 1002.84 1003.20 1003.52 1003.96 1004.40 1004.80 1005.04 1005.40 1005.76 1006.08 1006.36 1006.64 1006.92 1007.16 1007.56 1007.92 1008.20 1008.52 1008.84 1009.08 1009.36 1009.72 1010.08 1010.52 1010.88 1011.24
997.36 997.00 996.60 996.40 996.24 995.84 995.08 994.84 994.52 994.44 994.48 994.48 994.40 994.12 994.08 994.40 994.68 995.28 994.72 994.04 993.56 993.68 994.56 995.68 996.24 996.96 997.64 998.20 998.68 999.40 1000.08 1000.76 1001.20 1001.84 1002.52 1003.00 1003.24 1003.52 1003.72 1003.80 1003.84 1004.24 1004.72 1005.00 1005.28 1005.76 1006.20 1006.36 1006.64 1006.84 1007.08 1007.48 1007.76 1008.12 1008.44 1008.76 1009.08 1009.36 1009.64 1009.96 1010.24 1010.64 1011.08
997.40 997.24 997.04 996.68 996.56 996.68 996.44 995.80 995.52 995.20 995.08 995.16 994.88 994.64 994.56 994.76 995.16 995.48 995.56 995.48 995.24 995.04 995.12 995.92 996.64 997.24 998.04 998.60 999.28 1000.12 1000.60 1001.24 1001.84 1002.48 1003.16 1003.88 1004.48 1005.44 1005.72 1005.32 1004.84 1004.88 1005.20 1005.56 1005.52 1005.32 1005.60 1006.08 1006.40 1006.56 1006.68 1006.96 1007.52 1008.04 1008.60 1008.76 1009.00 1008.84 1008.72 1009.12 1009.60 1010.04 1010.60
997.64 997.28 997.04 996.72 996.48 996.68 996.72 996.24 996.08 996.24 996.28 996.20 995.84 995.72 995.80 995.48 995.68 996.24 996.16 995.96 995.64 995.56 996.36 996.60 997.16 997.96 998.76 999.28 999.92 1000.52 1001.12 1001.72 1002.28 1002.80 1003.36 1003.84 1004.36 1004.88 1005.92 1006.64 1006.52 1006.12 1005.52 1005.60 1005.84 1005.72 1005.32 1005.28 1005.92 1006.16 1006.52 1007.08 1007.32 1007.32 1007.84 1008.36 1008.24 1008.40 1008.84 1009.20 1009.64 1009.96 1010.24
998.04 997.64 997.32 997.12 997.12 997.12 997.20 996.80 996.48 996.56 996.92 997.00 996.88 996.88 996.96 996.72 996.52 996.68 996.60 996.68 996.28 996.44 996.72 996.92 997.84 998.68 999.36 999.80 1000.40 1000.96 1001.44 1002.00 1002.52 1002.96 1003.48 1003.92 1004.40 1004.84 1005.32 1005.84 1006.44 1006.92 1007.20 1007.04 1006.56 1005.88 1005.44 1005.28 1005.48 1005.80 1006.12 1006.56 1007.36 1007.80 1007.84 1007.76 1007.96 1008.40 1008.76 1009.08 1009.40 1009.76 1010.20
998.40 998.08 997.20 997.00 997.76 998.08 998.36 998.28 997.24 997.00 997.60 997.56 997.56 997.84 997.44 996.80 996.24 996.24 996.80 997.00 996.80 996.96 997.28 997.72 998.32 999.12 999.68 1000.32 1000.92 1001.28 1001.60 1002.00 1002.44 1002.92 1003.44 1004.00 1004.32 1004.68 1005.16 1005.60 1006.12 1006.68 1007.04 1007.00 1006.64 1006.44 1006.40 1006.16 1005.88 1005.88 1006.24 1006.52 1006.88 1007.48 1008.16 1008.40 1008.32 1008.44 1008.76 1009.12 1009.48 1009.84 1010.16
Wind_Speed
19 16 14 15 15 15 17 18 18 17 18 18 19 19 18 17 17 16 16 17 19 18 18 17 16 15 16 15 15 13 13 13 11 11 11 10 9 10 10 9 10 9 9 10 9 9 9 10 9 10 8 9 9 8 8 7 6 6 4 4 6 5 7
16 14 14 15 15 15 17 18 17 17 17 18 18 20 18 18 17 17 17 18 19 20 18 18 17 16 16 15 14 15 15 14 13 11 10 10 9 9 10 11 10 10 10 9 9 8 10 9 10 10 10 9 9 9 8 7 7 6 5 5 6 6 6
15 15 14 14 15 14 16 16 17 17 18 17 18 18 19 19 18 19 18 18 19 18 17 18 18 17 16 15 15 16 15 14 13 13 13 12 11 11 10 11 10 10 10 10 9 8 10 9 10 11 11 10 9 9 8 7 8 7 7 6 6 6 6
15 16 16 15 15 15 17 18 19 17 17 19 20 21 20 20 18 17 17 19 19 18 19 19 18 17 16 16 15 15 16 15 14 14 13 12 12 10 10 10 9 9 9 10 9 10 8 9 11 11 11 10 9 9 9 9 7 7 8 7 7 6 6
18 18 16 15 15 14 14 15 17 18 18 18 19 19 19 18 17 16 16 18 20 21 21 20 17 15 14 15 13 13 15 16 14 13 13 12 11 11 11 12 11 11 11 10 11 10 10 9 11 11 10 10 10 9 9 9 8 8 8 8 7 7 6
17 16 14 15 16 16 17 18 20 20 18 18 18 17 16 17 16 19 18 18 18 19 18 17 17 16 16 16 15 14 14 14 14 13 13 12 12 12 12 12 12 12 11 12 11 11 12 10 12 12 12 11 11 10 9 9 9 9 8 7 8 7 7
17 18 17 18 18 17 18 18 18 19 18 17 16 15 16 17 19 18 16 18 19 20 20 19 18 17 16 15 16 15 16 16 14 14 13 13 13 13 12 11 12 12 12 10 11 12 12 12 12 13 13 12 11 11 11 11 10 9 8 7 7 7 7
19 18 19 19 17 16 16 16 17 17 16 15 16 17 19 19 17 18 19 18 18 18 18 19 18 17 16 15 15 17 16 16 14 14 13 14 13 13 12 12 12 12 11 13 11 12 13 14 12 12 12 12 12 12 12 11 10 10 9 8 8 8 7
21 22 20 18 17 16 16 15 15 15 16 18 21 21 21 18 18 18 18 18 17 19 19 19 18 16 16 15 16 17 16 15 14 14 15 15 13 14 13 12 12 12 13 13 11 11 12 13 13 13 13 12 13 12 12 11 11 10 10 10 10 9 7
21 18 17 18 17 15 14 13 13 13 15 16 15 16 19 20 19 18 17 18 18 19 19 18 17 16 16 16 16 16 15 15 15 16 16 16 14 15 14 13 12 12 13 13 12 12 11 13 13 13 13 13 13 13 12 12 11 11 10 10 9 8 7
15 16 16 15 14 14 11 12 14 15 17 17 17 17 19 18 18 18 18 18 18 17 18 17 16 16 17 17 17 16 16 17 16 17 17 17 15 16 15 15 14 12 14 13 13 12 12 12 13 13 14 13 14 13 12 12 12 11 10 8 6 7 8
18 18 14 13 14 12 14 16 16 15 16 17 17 17 17 17 18 17 18 19 17 16 17 18 16 17 17 17 17 16 18 17 17 17 18 18 16 17 16 15 14 14 13 13 14 13 13 15 13 13 14 14 13 13 13 11 11 11 9 9 10 9 8
17 14 13 15 16 15 13 13 17 18 18 17 17 16 15 17 17 17 17 18 18 17 17 17 17 17 17 18 18 17 18 17 18 17 17 17 17 15 15 16 15 15 15 14 14 15 14 14 15 13 13 13 13 13 13 11 11 10 9 9 9 11 11
19 17 16 15 15 15 13 15 15 15 15 15 15 15 15 16 18 18 18 19 18 17 16 15 17 17 18 18 18 18 18 18 17 16 16 16 15 15 16 15 14 15 14 14 15 15 15 15 15 13 12 12 12 12 11 11 10 11 12 12 13 12 12
16 16 15 15 14 13 14 13 13 14 13 14 15 15 16 15 16 16 16 17 17 17 18 17 17 18 17 17 18 18 18 16 15 14 15 16 15 15 15 16 15 14 14 14 14 12 14 14 14 13 12 12 12 12 11 11 11 11 13 14 13 12 14
11 13 16 17 16 16 15 16 15 14 13 13 15 17 16 16 16 17 17 17 17 18 17 16 17 18 17 18 18 17 16 16 15 15 16 16 16 16 16 15 15 14 14 15 15 13 13 13 13 13 13 13 12 11 11 10 9 14 22 19 13 13 11
11 12 8 6 6 9 9 12 13 13 14 15 17 18 17 16 17 17 18 17 18 18 17 17 17 18 18 18 17 16 16 15 16 15 16 16 16 16 15 15 13 13 13 14 14 14 12 12 14 14 13 13 13 13 11 10 9 18 22 22 20 13 11
14 12 10 11 12 12 12 12 11 12 13 15 17 18 17 17 17 17 18 18 19 19 17 17 18 19 19 17 16 16 17 16 16 16 16 16 16 15 15 13 13 12 12 13 14 13 11 12 14 13 12 11 12 12 11 9 12 19 22 21 19 15 11
16 16 15 14 14 15 17 17 16 16 16 16 16 17 19 19 17 17 18 19 19 16 17 18 18 18 18 17 17 17 17 16 16 17 16 16 15 13 13 13 13 13 12 14 13 11 12 13 12 12 12 12 13 12 11 10 14 18 21 20 19 17 13
6 10 17 19 18 18 16 14 13 14 17 16 17 19 20 18 19 20 20 20 17 16 18 18 17 17 18 17 18 18 17 16 16 16 16 14 13 12 12 13 14 12 10 9 10 13 12 10 11 11 12 12 12 12 10 9 14 18 20 21 21 17 10
9 10 10 10 13 15 15 16 16 14 13 14 16 16 15 15 17 17 15 14 15 17 18 18 17 16 17 17 17 17 16 16 16 15 14 14 13 12 12 13 11 11 9 10 12 12 11 10 11 11 11 11 11 10 10 8 16 19 20 20 17 8 2
6 5 9 10 9 9 13 16 16 15 14 13 13 12 13 15 15 14 15 15 17 16 16 16 16 15 15 16 16 17 16 16 15 14 13 13 12 13 12 12 11 11 8 8 8 8 8 8 10 11 11 10 10 9 9 8 18 19 20 17 15 9 8
4 5 5 7 14 16 15 14 13 14 14 14 14 14 14 14 14 14 13 14 15 15 15 15 15 15 15 16 16 15 15 15 15 14 13 13 13 12 12 11 10 8 7 8 8 8 9 9 9 9 10 10 10 10 8 8 16 19 19 19 23 18 11
5 6 5 5 6 8 11 12 13 15 15 15 14 16 15 15 15 14 14 15 15 15 14 15 15 14 15 15 15 15 15 15 15 14 13 13 13 12 10 9 8 8 8 9 9 10 10 9 8 9 10 11 11 12 11 10 16 23 23 23 25 19 13
9 6 6 6 7 8 13 14 15 15 13 14 15 15 13 14 16 15 16 16 16 15 15 14 12 13 15 15 15 15 14 14 14 14 14 13 11 11 10 10 10 8 8 8 8 10 9 9 9 8 7 9 10 13 13 12 16 22 21 21 20 16 11
10 10 7 6 6 10 9 14 16 15 15 15 17 16 15 15 15 16 16 15 15 15 15 14 13 12 12 13 13 13 13 13 14 13 13 12 11 10 10 9 8 9 9 7 6 6 6 6 7 8 7 8 10 11 13 14 10 12 20 19 19 20 12
11 6 5 6 8 8 6 8 14 16 16 15 16 16 16 16 16 16 15 14 14 15 14 10 11 12 13 13 14 14 14 13 14 15 13 13 12 11 10 9 9 8 7 7 6 7 7 8 6 7 6 7 9 10 9 10 13 13 18 20 20 19 16
16 13 7 10 13 13 12 13 7 11 14 16 18 18 16 16 16 15 14 13 14 13 9 12 13 14 14 15 15 15 15 14 13 12 11 11 11 10 9 7 8 8 9 7 7 8 8 7 8 8 7 6 8 9 9 12 17 13 16 17 16 16 14
13 14 9 11 12 15 17 15 10 3 8 12 12 9 8 12 13 12 11 13 12 10 12 13 14 15 15 14 14 14 13 13 13 11 9 10 10 11 10 9 8 8 9 8 8 9 9 9 9 9 8 7 6 7 9 10 13 18 13 15 16 18 13
12 13 13 10 8 10 12 10 11 14 18 18 13 2 9 13 12 12 12 12 9 12 13 14 14 15 15 14 14 13 12 12 11 10 9 10 10 9 9 8 6 7 8 9 9 9 9 7 8 8 9 9 7 6 6 8 8 10 15 14 17 17 14
12 13 11 9 10 7 10 12 12 12 13 13 15 17 15 4 11 12 13 10 13 15 15 14 15 15 14 14 13 13 11 11 9 9 8 8 9 9 8 7 8 8 8 9 8 8 8 8 8 9 9 8 9 8 7 7 8 8 11 14 14 15 15
14 14 15 14 11 10 7 9 12 12 9 8 9 7 8 13 7 7 8 11 14 15 15 15 15 14 14 13 13 13 12 11 9 8 8 7 7 7 6 7 7 7 6 7 8 8 8 8 7 8 8 8 8 8 8 8 8 9 7 7 11 12 14
13 13 14 15 14 6 8 9 10 8 8 10 4 6 8 9 3 3 9 11 15 16 17 16 15 14 13 13 13 12 12 11 9 9 9 8 8 8 7 7 7 7 7 6 7 7 7 7 8 7 8 8 8 8 8 8 8 7 5 6 6 6 6
13 13 14 13 13 10 8 8 7 6 6 7 4 4 7 7 9 9 5 8 13 16 17 14 14 14 14 14 12 11 11 10 13 11 8 8 8 7 6 5 6 7 7 7 7 8 6 7 7 8 8 8 8 8 8 9 8 8 9 8 7 7 6
10 10 10 11 11 12 9 6 7 6 7 7 6 6 7 10 9 5 5 5 4 10 14 15 15 14 14 13 12 11 10 10 10 10 10 9 10 8 7 6 5 6 6 5 3 2 8 7 6 7 7 8 9 9 8 7 8 9 8 9 10 10 9
8 8 8 8 7 7 8 8 9 10 10 10 10 9 9 8 8 3 5 7 8 10 14 14 14 14 13 12 11 11 11 10 10 10 10 10 10 10 9 13 12 10 5 2 5 4 3 8 7 8 7 7 6 7 11 10 9 10 13 13 12 11 10
7 6 7 9 10 11 11 9 10 12 12 10 10 7 5 5 8 5 7 7 8 11 12 14 13 11 11 11 10 11 10 10 9 9 9 9 9 9 10 8 11 14 14 9 6 6 6 13 14 15 14 12 8 2 7 4 13 15 15 15 15 14 12
9 8 10 11 10 7 5 7 7 11 8 6 6 7 9 5 9 12 10 8 8 9 11 12 12 11 10 10 11 12 10 10 10 10 10 8 8 8 9 8 9 8 12 13 12 14 14 11 13 16 16 15 13 9 3 3 7 14 14 13 13 12 11
Wind_Direction
185 188 184 185 182 182 183 183 179 178 176 179 181 181 178 177 178 175 178 179 182 183 187 186 189 188 190 190 189 188 190 191 188 187 187 190 186 182 180 180 172 172 171 171 177 177 178 175 167 167 166 163 169 170 171 178 185 189 180 165 167 174 180
186 189 184 183 183 180 183 183 179 177 178 180 181 181 179 179 176 178 180 181 183 185 185 188 189 191 190 190 190 190 191 192 189 187 187 189 187 181 180 179 176 177 176 174 172 172 174 176 167 168 172 165 168 172 174 174 180 182 183 173 157 175 178
185 186 181 180 182 180 181 181 183 180 179 179 180 181 182 181 179 178 177 180 183 185 186 189 191 191 190 189 189 193 194 191 190 188 188 189 187 180 180 179 178 175 178 175 173 173 177 171 171 170 172 171 164 171 178 170 179 179 182 177 174 173 182
183 184 183 179 180 181 179 182 184 183 178 179 181 183 184 182 179 177 177 179 181 183 188 192 192 192 190 189 190 193 194 194 191 190 190 187 186 179 177 179 178 174 175 179 177 177 176 170 171 172 172 171 172 170 176 180 177 179 179 178 183 182 181
182 181 181 183 185 185 181 182 184 184 184 182 181 182 182 180 176 176 177 180 182 186 190 190 191 190 191 190 192 194 194 192 191 190 189 188 185 182 180 180 180 179 177 177 178 179 178 168 169 173 174 175 177 175 175 178 182 181 179 178 182 185 187
182 182 183 187 189 190 188 186 185 184 182 179 180 179 179 177 180 182 180 178 184 188 188 188 189 189 191 192 193 195 193 194 191 188 188 187 185 189 186 181 181 180 177 181 180 181 179 172 172 174 176 179 178 177 176 180 187 184 181 180 184 183 184
183 186 188 190 191 190 189 188 184 183 182 177 171 173 177 182 185 183 181 183 184 185 187 189 190 189 192 191 195 193 193 192 189 189 188 187 189 190 187 183 182 184 182 178 183 179 180 179 176 176 178 179 180 180 182 183 186 186 183 181 189 190 186
184 188 193 192 191 187 189 187 186 183 177 170 168 175 181 184 181 184 188 185 185 188 189 189 190 190 190 193 194 195 194 192 189 188 186 189 191 192 188 186 184 182 181 189 182 180 180 181 178 178 177 180 184 184 185 184 183 184 182 186 189 194 191
186 189 190 189 185 188 187 182 181 180 178 176 177 179 180 178 184 187 187 185 189 190 191 190 190 189 191 193 195 197 194 189 190 188 188 190 192 193 191 190 185 183 186 188 185 182 181 181 180 180 181 183 186 185 186 184 183 184 185 189 191 191 193
185 190 189 184 186 187 183 179 174 176 183 185 179 175 178 184 185 183 186 189 190 194 191 190 189 190 192 195 198 196 191 192 191 190 190 193 193 193 192 191 189 186 188 187 185 184 183 181 182 183 185 186 187 187 185 185 185 185 187 189 189 192 197
177 185 188 185 180 178 172 170 178 183 185 186 183 181 181 180 181 184 187 188 192 193 189 191 190 190 193 195 197 195 195 194 192 192 193 194 193 194 192 192 191 190 190 186 188 185 180 185 185 187 188 190 188 187 188 187 184 182 181 179 183 193 204
180 187 180 174 171 167 171 180 183 184 186 186 185 181 180 180 181 183 186 191 191 189 190 191 191 192 192 195 196 197 197 196 194 194 194 194 194 194 194 194 192 191 191 188 188 185 186 186 189 190 191 192 190 189 189 184 181 177 169 174 184 191 201
177 173 171 171 175 178 172 173 180 184 186 186 185 182 179 179 180 183 186 190 191 191 188 189 191 193 193 194 196 198 199 197 197 195 194 194 195 194 195 196 193 191 193 191 190 187 188 190 191 193 191 192 189 191 188 182 176 162 162 179 186 192 201
177 176 176 175 179 174 168 172 179 182 185 186 185 182 179 181 183 183 185 189 191 188 187 189 191 192 193 194 196 198 199 199 197 194 194 195 195 196 197 197 195 194 193 191 193 191 190 190 193 193 191 190 191 191 186 179 171 164 171 183 192 196 193
174 175 172 174 175 175 173 174 182 185 183 183 182 181 182 183 185 186 187 189 188 188 190 187 188 192 193 194 198 199 198 197 195 195 194 194 195 197 197 198 197 194 191 192 196 194 193 192 191 189 190 190 190 188 185 179 174 171 176 191 194 195 199
168 174 176 177 180 180 182 182 183 188 184 179 179 183 183 184 185 187 188 190 189 190 190 184 189 191 193 196 199 197 196 195 194 193 194 193 195 197 198 197 195 193 192 193 195 195 190 190 189 191 190 188 189 189 186 183 177 178 183 193 191 194 199
161 165 161 166 186 188 189 188 192 188 185 184 183 183 183 185 187 188 190 189 189 191 189 187 189 191 194 198 195 194 193 193 194 193 194 195 196 197 195 195 193 191 191 192 193 194 189 185 188 191 189 189 189 191 190 184 181 174 184 193 195 191 196
147 151 165 170 176 186 190 194 194 193 193 191 188 185 183 186 187 187 191 191 192 193 188 188 190 192 196 195 189 191 192 192 191 192 196 196 197 194 193 191 190 190 188 189 191 192 185 186 191 189 185 188 191 193 188 184 177 175 186 194 195 196 196
162 164 176 179 184 186 188 189 188 188 192 192 189 186 189 187 185 189 193 193 196 188 186 191 192 192 193 190 187 190 190 189 190 193 193 195 194 191 189 189 189 189 187 190 188 183 188 192 185 186 184 187 190 191 187 186 172 176 184 192 195 199 196
199 191 178 181 186 191 193 191 191 191 189 190 190 190 192 187 185 192 193 194 189 184 190 192 192 190 191 188 188 188 187 187 187 190 191 189 188 185 186 188 191 190 185 177 179 188 191 185 179 177 184 185 187 189 187 186 169 174 180 188 191 196 191
171 163 205 207 192 191 192 193 197 197 195 191 191 194 190 189 193 193 192 187 186 190 191 193 191 189 188 188 187 184 183 183 184 185 183 182 181 180 183 187 185 183 175 173 181 185 184 178 176 180 182 183 182 185 185 184 164 173 179 184 183 160 27
212 189 165 186 215 215 198 195 194 195 196 195 193 193 187 191 193 187 188 187 188 190 192 191 190 188 185 186 183 182 179 177 177 176 174 172 173 175 178 178 178 179 168 161 167 171 163 171 175 177 179 179 178 177 183 166 165 172 175 173 122 115 226
200 201 204 194 182 193 200 203 204 201 194 192 192 188 192 193 187 187 185 186 190 188 189 188 190 187 184 183 179 176 172 170 168 167 166 166 165 169 169 169 171 168 154 152 160 162 169 170 173 171 173 174 174 171 173 148 172 166 167 150 147 177 206
247 256 222 201 183 196 202 200 203 201 195 194 194 194 192 187 183 184 183 188 190 188 187 187 189 184 177 176 172 168 165 163 161 161 161 161 165 164 160 161 161 166 161 161 167 173 173 164 161 168 173 172 173 176 165 163 174 172 171 160 168 175 195
276 248 251 233 222 191 191 201 199 204 206 196 195 196 191 185 183 182 188 189 189 188 187 188 180 174 172 168 162 158 156 155 154 154 155 157 158 157 160 167 170 171 168 169 169 174 174 168 169 161 161 166 169 160 150 158 181 179 160 164 172 180 200
346 337 330 305 279 256 209 193 200 201 198 198 197 190 186 187 186 187 187 190 187 187 188 184 175 165 154 147 146 146 145 145 144 146 149 153 155 162 165 161 160 169 173 173 163 157 162 165 167 160 158 152 152 151 161 173 167 161 165 169 183 188 193
314 302 308 314 309 301 263 205 194 197 195 195 196 192 187 185 185 186 189 184 183 189 187 164 146 144 142 142 142 142 142 142 145 149 155 158 160 159 161 162 161 156 160 157 148 152 160 161 149 139 134 135 141 146 155 155 156 174 177 182 186 187 189
351 336 356 13 10 349 309 270 200 191 195 194 194 192 190 183 181 183 180 177 185 184 151 142 144 141 141 143 144 143 142 143 145 148 150 154 154 156 156 152 153 159 162 158 152 149 147 142 138 132 128 127 133 143 147 154 157 171 191 183 177 179 191
355 339 347 48 38 34 36 8 353 281 212 199 192 193 184 172 169 168 169 180 175 146 142 142 141 140 138 137 138 139 140 142 146 146 147 145 148 152 159 161 159 159 157 148 141 141 144 147 144 139 134 130 138 146 151 159 171 171 173 179 169 184 187
359 348 349 1 59 77 65 51 40 37 26 14 355 318 162 161 167 170 172 168 140 134 135 137 135 134 133 134 135 135 136 139 139 138 144 148 148 146 150 157 149 143 146 142 143 145 146 146 142 142 144 146 148 150 152 159 159 170 172 170 177 186 184
3 351 342 355 354 9 77 83 68 50 37 37 27 7 332 280 172 164 154 143 136 135 136 135 134 131 132 130 130 129 132 130 130 134 140 143 143 142 142 143 142 144 151 147 143 142 145 155 152 153 156 155 155 156 154 154 161 165 178 173 178 187 191
11 3 1 352 0 7 34 79 85 81 74 62 82 84 38 356 346 124 136 136 132 132 130 131 129 128 127 127 127 129 128 127 120 118 120 115 112 113 116 122 121 120 128 131 137 145 150 157 156 153 153 152 150 157 158 156 163 173 176 183 182 192 198
17 13 10 3 343 354 42 43 53 49 86 94 67 101 108 123 227 204 144 136 133 130 129 128 127 124 124 124 123 122 124 123 122 114 108 107 102 103 107 115 118 121 124 130 137 143 148 151 152 148 144 142 143 146 149 159 171 168 162 160 160 173 161
21 16 17 13 358 352 43 52 74 85 85 81 60 72 100 89 59 354 25 111 129 131 124 125 126 125 124 121 120 120 120 120 113 101 87 68 71 71 69 86 122 122 121 134 148 149 151 150 151 151 152 147 146 146 150 157 158 163 169 167 162 162 160
29 23 16 21 16 3 7 24 31 42 59 44 28 43 76 85 76 82 84 63 65 112 115 117 114 113 114 114 113 112 109 103 103 104 99 88 76 64 44 28 25 85 82 28 7 130 146 151 145 147 148 147 149 147 148 154 169 192 175 165 166 164 165
11 13 19 17 12 360 352 15 31 33 32 27 20 20 8 51 61 6 57 91 100 96 105 108 108 109 111 113 114 113 109 108 105 106 106 102 101 96 74 58 52 25 51 75 9 348 220 135 149 149 138 136 145 150 157 177 191 156 137 139 146 145 154
11 18 25 15 7 2 355 6 43 45 26 11 348 6 330 10 70 54 64 71 91 104 107 107 107 108 113 115 112 112 112 112 108 106 106 109 111 103 105 89 50 48 38 31 16 44 101 142 138 139 146 148 147 23 9 148 148 151 153 148 154 154 153
9 20 45 35 7 9 8 347 36 70 57 0 6 305 273 164 128 119 118 112 100 101 106 111 117 119 113 106 112 113 114 114 116 117 115 116 115 113 112 100 96 50 39 42 48 51 53 68 117 135 140 144 141 136 62 59 146 150 151 150 143 143 142